map of CJC home
CJC - Airport
Location
City:  Calama, Antofagasta, Chile
Name:El Loa
ICAO:SCCF
IATA:CJC

Details
Type:Airport (Aerodrome, Airfield)
Use:Public/Civil
Latitude:2229'53"S (-22.498174)
Longitude:6854'13"W (-68.903574)
Datum:WGS 1984
Elevation:7543 ft (2299 m)
Variation:5.57W (WMM2015v2 magnetic declination)
-0.20 annual change
Runways:1
Longest:9478 × 98 ft (2889 × 30 m), paved

Time
Time Zone:UTC-4 (DST-3)
Local Time:

Weather
METAR:SCCF 041400Z 28007KT CAVOK 20/09 Q1025
TAF:SCCF 041031Z 0412/0512 25008KT 9999 SCT060 BKN140 TX25/0417Z TN16/0506Z
BECMG 0416/0418 27022KT
TEMPO 0418/0422 8000 -SHRA OVC050
BECMG 0502/0504 27008KT
BECMG 0508/0510 10008KT

Related Locations
Nearby:
Farthest:WUZ: 12363 mi / 19897 km
Wuzhou [Changzhoudao], 45, CN

Find:

   beyond  
but within

Other Information
Maps:
NOTAMs:
Links:
Sources:

  
  • flag of Chile
  • flag of Antofagasta
  

Sectional Chart

Flight Planning
at skyvector.com

Satellite Image

Google Maps Satellite view

 

Copyright © 2004-2019 Karl L. Swartz. All rights reserved.
The Great Circle Mapper name and logo are trademarks of the Great Circle Mapper.
All other trademarks mentioned herein belong to their respective owners.
Please see credits for attibutions and further copyright information.

  Follow gcmap on Facebook Follow gcmap on Twitter GCmap on LinkedIn

hCard Microformat

Geo Microformat